EW8311 Weather Reports


time (UTC)temp
C
wind
direction
speed
KPH
gust
KPH
rain 1hr
cm
rain 24hr
cm
rain mn
cm
humidity
%
barometer
mb
20260902123038 23 103 0.0 1.6 0.00 0.00 0.00 72 1008.3
20260902121537 23 103 0.0 0.0 0.00 0.00 0.00 74 1008.3
20260902120037 22 103 0.0 0.0 0.00 0.00 0.00 75 1008.4
20260902114541 22 103 0.0 0.0 0.00 0.00 0.00 77 1008.3
20260902113049 22 103 0.0 0.0 0.00 0.00 0.00 74 1008.3
20260902111531 23 103 0.0 0.0 0.00 0.00 0.00 73 1008.2
20260902110029 23 103 0.0 0.0 0.00 0.00 0.00 71 1008.2
20260902104535 24 103 0.0 0.0 0.00 0.00 0.00 68 1008.3
20260902103030 24 101 0.0 1.6 0.00 0.00 0.00 67 1008.4
20260902101535 24 93 0.0 1.6 0.00 0.00 0.00 68 1008.5
20260902100026 23 97 0.0 0.0 0.00 0.00 0.00 68 1008.4
20260902094526 23 97 0.0 0.0 0.00 0.00 0.00 69 1008.4
20260902093027 23 97 0.0 0.0 0.00 0.00 0.00 70 1008.4
20260902091532 24 97 0.0 1.6 0.00 0.00 0.00 67 1008.4
20260902090024 23 97 0.0 1.6 0.00 0.00 0.00 70 1008.3
20260902084523 23 97 0.0 0.0 0.00 0.00 0.00 71 1008.2
20260902083021 24 97 0.0 0.0 0.00 0.00 0.00 68 1008.2
20260902081523 24 97 0.0 0.0 0.00 0.00 0.00 67 1008.2
20260902080020 25 97 0.0 0.0 0.00 0.00 0.00 67 1008.2
20260902074519 24 97 0.0 0.0 0.00 0.00 0.00 68 1008.2
20260902073018 24 97 0.0 0.0 0.00 0.00 0.00 69 1008.2
20260902071515 24 97 0.0 0.0 0.00 0.00 0.00 67 1008.3
20260902070013 25 97 0.0 0.0 0.00 0.00 0.00 66 1008.2
20260902064512 25 97 0.0 0.0 0.00 0.00 0.00 63 1008.2
20260902063011 25 97 0.0 0.0 0.00 0.00 0.00 65 1008.0
20260902061518 25 97 0.0 0.0 0.00 0.00 0.00 62 1008.1
20260902060009 26 97 0.0 0.0 0.00 0.00 0.00 61 1008.2
20260902054509 27 97 0.0 0.0 0.00 0.00 0.00 57 1008.1
20260902053009 27 97 0.0 0.0 0.00 0.00 0.00 52 1008.2
20260902051508 27 97 0.0 3.2 0.00 0.00 0.00 51 1008.4
20260902050009 28 118 0.0 3.2 0.00 0.00 0.00 51 1008.3
20260902044520 28 98 0.0 1.6 0.00 0.00 0.00 50 1008.2
20260902043007 27 101 0.0 1.6 0.00 0.00 0.00 52 1008.1
20260902041505 27 98 0.0 1.6 0.00 0.00 0.00 53 1008.1
20260902040005 27 99 0.0 0.0 0.00 0.00 0.00 54 1007.9
20260902034505 28 99 0.0 3.2 0.00 0.00 0.00 50 1007.6
20260902033005 28 122 0.0 1.6 0.00 0.00 0.00 49 1007.3
20260902031504 28 124 0.0 1.6 0.00 0.00 0.00 51 1006.9
20260902030004 28 124 0.0 0.0 0.00 0.00 0.00 51 1006.6
20260902024503 29 125 0.0 0.0 0.00 0.00 0.00 49 1006.3
20260902023011 29 125 0.0 1.6 0.00 0.00 0.00 47 1006.2
20260902021502 30 129 0.0 3.2 0.00 0.00 0.00 45 1005.9
20260902020001 30 315 0.0 1.6 0.00 0.00 0.00 46 1005.8
20260902014500 30 297 0.0 3.2 0.00 0.00 0.00 45 1005.6
20260902013102 31 304 1.6 8.0 0.00 0.00 0.00 43 1005.6
20260902011631 32 314 3.2 9.7 0.00 0.00 0.00 42 1005.5
20260902010059 32 269 1.6 9.7 0.00 0.00 0.00 42 1005.4
20260902004558 32 269 3.2 11.3 0.00 0.00 0.00 42 1005.6
20260902003104 33 327 3.2 12.9 0.00 0.00 0.00 40 1005.7
20260902001558 33 349 3.2 11.3 0.00 0.00 0.00 40 1005.9
20260902000059 33 282 3.2 11.3 0.00 0.00 0.00 40 1006.0
20260901234600 33 321 3.2 16.1 0.00 0.00 0.00 39 1006.2
20260901233051 33 319 4.8 12.9 0.00 0.00 0.00 37 1006.3
20260901231606 33 289 3.2 8.0 0.00 0.00 0.00 38 1006.4
20260901230058 33 312 3.2 12.9 0.00 0.00 0.00 38 1006.6
20260901224546 33 262 4.8 12.9 0.00 0.00 0.00 36 1006.7
20260901223045 33 295 4.8 11.3 0.00 0.00 0.00 38 1006.8
20260901221606 33 307 6.4 12.9 0.00 0.00 0.00 37 1007.1
20260901220049 33 321 3.2 12.9 0.00 0.00 0.00 37 1007.3
20260901214538 32 336 4.8 14.5 0.00 0.05 0.00 39 1007.6
20260901213042 33 326 4.8 11.3 0.00 0.05 0.00 38 1007.9
20260901211533 33 330 3.2 8.0 0.00 0.05 0.00 38 1008.1
20260901210032 32 326 3.2 11.3 0.00 0.05 0.00 39 1008.3
20260901204529 32 94 3.2 12.9 0.00 0.30 0.00 38 1008.6
20260901203029 32 326 1.6 8.0 0.00 0.30 0.00 38 1008.8
20260901201524 32 243 1.6 8.0 0.00 0.30 0.00 39 1009.2
20260901200033 32 327 1.6 9.7 0.00 0.30 0.00 41 1009.3
20260901194522 33 316 1.6 9.7 0.00 0.46 0.00 38 1009.4
20260901193019 32 110 1.6 8.0 0.00 0.46 0.00 40 1009.7
20260901191523 31 325 3.2 8.0 0.00 0.46 0.00 43 1009.8
20260901190022 31 317 4.8 9.7 0.00 0.46 0.00 43 1010.1
20260901184514 30 307 3.2 11.3 0.00 0.58 0.00 45 1010.1
20260901183011 30 314 3.2 9.7 0.00 0.58 0.00 46 1010.4
20260901181516 30 318 3.2 9.7 0.00 0.58 0.00 46 1010.5
20260901180008 30 255 0.0 3.2 0.00 0.58 0.00 44 1010.5
20260901174507 30 309 1.6 4.8 0.00 0.58 0.00 45 1010.6
20260901173005 29 311 0.0 3.2 0.00 0.58 0.00 47 1010.8
20260901171505 29 300 1.6 4.8 0.00 0.58 0.00 47 1010.8
20260901170001 28 249 0.0 1.6 0.00 0.58 0.00 50 1010.7
20260901164617 27 265 0.0 3.2 0.00 0.58 0.00 54 1010.7
20260901163057 27 271 0.0 3.2 0.00 0.58 0.00 55 1010.7
20260901161555 27 91 0.0 0.0 0.00 0.58 0.00 60 1010.6
20260901160108 26 254 0.0 0.0 0.00 0.58 0.00 60 1010.6
20260901154552 26 136 0.0 3.2 0.00 0.58 0.00 63 1010.7
20260901153100 25 127 0.0 0.0 0.00 0.58 0.00 64 1010.8
20260901151545 24 297 0.0 1.6 0.00 0.58 0.00 69 1010.9
20260901150050 24 321 0.0 0.0 0.00 0.58 0.00 70 1010.9
20260901144543 23 321 0.0 0.0 0.00 0.58 0.00 74 1010.9
20260901143035 22 321 0.0 0.0 0.00 0.58 0.00 77 1010.8
20260901141531 22 321 0.0 0.0 0.00 0.58 0.00 84 1010.7
20260901140044 21 321 0.0 0.0 0.00 0.58 0.00 87 1010.6
20260901134527 20 321 0.0 0.0 0.00 0.58 0.00 90 1010.4
20260901133027 19 321 0.0 0.0 0.00 0.58 0.00 91 1010.5
20260901131534 19 321 0.0 0.0 0.00 0.58 0.00 90 1010.1
20260901130022 19 321 0.0 0.0 0.00 0.58 0.00 89 1009.8
20260901124521 19 321 0.0 0.0 0.00 0.64 0.00 88 1009.7